Tracking 19846 objects as of 20-Sep-2019
HD Live streaming from Space Station
objects crossing your sky now

MOLNIYA 1-52

Track MOLNIYA 1-52 now!
MOLNIYA 1-52 is classified as:


NORAD ID: 13012
Int'l Code: 1981-123A
Perigee: 1,186.2 km
Apogee: 39,171.8 km
Inclination: 63.9 °
Period: 717.6 minutes
Semi major axis: 26550 km
RCS: 16.6943 m2 (large)
Launch date: December 23, 1981
Source: Commonwealth of Independent States (former USSR) (CIS)
Launch site: TYURATAM MISSILE AND SPACE COMPLEX (TTMTR)
aabbcc
Your satellite tracking list
Your tracking list is empty




NASA's NSSDC Master Catalog

Two Line Element Set (TLE):
1 13012U 81123A   19261.91025790 -.00001296  00000-0  00000+0 0  9992
2 13012  63.8585  64.3866 7153590 248.6254  25.7431  2.00680604276539
Source of the keplerian elements: AFSPC